Flag for Canada Weather past 2 weeks in Timmins, Ontario, Canada

Now
55 °F

Light rain. Fog.


Feels Like: 54 °F
Forecast: 53 / 60 °F
Wind: 6 mph from Northwest

Location: Timmins

Current Time: Aug 4, 2015 at 7:52:30 AM

Latest Report: Aug 4, 2015 at 7:00 AM


Visibility: 3 mi

Pressure: 29.75 "Hg

Humidity: 94%

Dew point: 54 °F

Location of TimminsLocation

Historic Weather in Timmins — Graph

°F

Timmins temperature yesterday

Maximum temperature yesterday: 66 °F (at 2:00 PM)
Minimum temperature yesterday: 48 °F (at 5:00 AM)
Average temperature yesterday: 57 °F

Past Weeks' High & Low Weather Summary

 TemperatureHumidityPressure
High91 °F (Jul 28, 3:00 PM)100% (Jul 23, 3:00 AM)29.97 "Hg (Jul 23, 3:00 AM)
Low43 °F (Jul 23, 5:00 AM)32% (Jul 23, 4:00 PM)29.39 "Hg (Jul 20, 3:00 PM)
Average65 °F76%29.74 "Hg
* Reported Jul 20 6:00 AM — Aug 4 6:00 AM, Timmins, Weather by CustomWeather, © 2015

Note: Actual official high and low records may vary slightly from our data, if they occured in-between our weather recording intervals... More about our weather records

Advertising

Timmins weather history for previous 24 hours

 ConditionsComfort  
Time TempWeatherWind HumidityBarometerVisibility
6:00 AM
Tue, Aug 4
55 °FLight rain. Low clouds.5 mph94%29.73 "Hg5 mi
5:00 AM55 °FLow clouds.5 mph94%29.72 "Hg10 mi
4:00 AM54 °FSprinkles. Mostly cloudy.6 mph100%29.71 "Hg10 mi
3:00 AM55 °FSprinkles. Mostly cloudy.7 mph94%29.70 "Hg15 mi
2:00 AM54 °FSprinkles. Mostly cloudy.5 mph100%29.69 "Hg15 mi
1:00 AM54 °FSprinkles. Mostly cloudy.3 mph100%29.69 "Hg15 mi
12:00 AM54 °FSprinkles. Overcast.2 mph100%29.69 "Hg15 mi
11:00 PM
Mon, Aug 3
55 °FSprinkles. Mostly cloudy.5 mph94%29.69 "Hg15 mi
10:00 PM55 °FSprinkles. Mostly cloudy.3 mph100%29.68 "Hg15 mi
9:00 PM55 °FSprinkles. Mostly cloudy.3 mph100%29.67 "Hg15 mi
8:00 PM59 °FSprinkles. Broken clouds.3 mph88%29.66 "Hg15 mi
7:00 PM59 °FBroken clouds.3 mph88%29.65 "Hg15 mi
6:00 PM61 °FBroken clouds.9 mph77%29.64 "Hg15 mi
5:00 PM61 °FSprinkles. More clouds than sun.5 mph88%29.64 "Hg15 mi
4:00 PM59 °FSprinkles. Mostly cloudy.8 mph88%29.63 "Hg8 mi
3:00 PM64 °FPartly sunny.5 mph68%29.61 "Hg15 mi
2:00 PM66 °FBroken clouds.9 mph60%29.61 "Hg15 mi
1:00 PM61 °FPartly sunny.7 mph83%29.61 "Hg15 mi
12:00 PM63 °FLight rain. Mostly cloudy.8 mph77%29.60 "Hg15 mi
11:00 AM57 °FLight rain. Mostly cloudy.7 mph94%29.61 "Hg15 mi
10:00 AM57 °FLight rain. Mostly cloudy.2 mph94%29.59 "Hg12 mi
9:00 AM57 °FMostly cloudy.6 mph94%29.58 "Hg15 mi
8:00 AM54 °FPartly sunny.6 mph100%29.57 "Hg15 mi
7:00 AM52 °FLight rain. Partly cloudy.No wind100%29.55 "Hg15 mi
Weather by CustomWeather, © 2015

See weather overviewHow to use our weather pages